Location: Peebles
(55.6412°N, 3.1714°W)
Time: 05:14:51
(UTC+00:00)

OBJECT-B - Visible Passes

Search period start: 25 January 2022 00:00
Search period end: 04 February 2022 00:00
Orbit: 408 x 417 km, 97.0° (Epoch: 10 December)

Date Brightness Start Highest point End Pass type
(mag) Time Alt. Az. Time Alt. Az. Time Alt. Az.
29 Jan 3.5 19:19:56 11° N 19:19:56 11° N 19:20:05 10° N visible
30 Jan 3.1 18:31:20 11° NNE 18:31:20 11° NNE 18:31:37 10° NNE visible
31 Jan 3.2 19:15:28 14° N 19:15:28 14° N 19:16:02 10° N visible
01 Feb 2.9 18:26:47 13° NNE 18:26:47 13° NNE 18:27:27 10° NNE visible
01 Feb 3.7 19:59:33 12° NNW 19:59:33 12° NNW 19:59:53 10° NNW visible
02 Feb 2.8 19:10:50 19° N 19:10:50 19° N 19:11:53 10° N visible
03 Feb 2.7 18:22:06 15° NE 18:22:06 15° NE 18:23:09 10° NNE visible
03 Feb 3.3 19:54:51 17° NNW 19:54:51 17° NNW 19:55:42 10° NNW visible
